[[{"header":{"parameterUnit":"m.s-1","parameterCategory":1,"la1":30.2991,"la2":30.254,"lo1":-89.0895,"lo2":-89.0444,"dy":0.0017,"dx":0.0017,"nx":28,"ny":28,"refTime":"2026-01-02T03:00:00:Z","depth":0,"parameterNumber":2,"parameterNumberName":"U-component_of_WINDS"},"data":[0,0,0,0,0,0,0,0,0,0,0,0,0,0,0,0,0,0,0,0,0,0,0,0,0,0,0,0,0,0,0,0,0,0,0,0,0,0,0,0,0,0,0,0,0,0,0,0,0,0,0,0,0,0,0,0,0,0,1.5417,1.5417,0,1.5437,1.5437,1.5438,1.5406,1.5405,1.5404,1.5403,1.5424,1.5426,1.5427,0,0,0,0,0,0,0,0,0,0,0,0,0,1.535,1.5351,1.5417,1.5417,1.5417,1.5437,1.5437,1.5438,1.5406,1.5405,1.5403,1.5402,1.5424,1.5425,1.5427,0,0,0,0,0,0,0,0,0,0,0,0,0,1.5376,1.5352,1.5416,1.5404,1.5403,1.5437,1.5437,1.5438,1.5406,1.5405,1.5403,1.5402,1.5423,1.5425,1.5428,1.5475,0,0,1.5435,1.5436,0,0,0,0,0,0,0,0,1.5374,1.5378,1.5405,1.5405,1.5404,1.5417,1.5422,1.545,1.5407,1.5405,1.5403,1.5401,1.5423,1.5425,1.5433,1.5476,1.5477,1.5435,1.5437,1.5438,1.5438,0,0,0,0,0,0,0,1.5372,1.5377,1.5425,1.5406,1.5405,1.5397,1.5399,1.5427,1.5423,1.5405,1.5403,1.5406,1.5422,1.5431,1.5433,1.5477,1.5435,1.5437,1.5439,1.544,1.5561,1.5563,0,0,0,0,0,0,1.5372,1.5376,1.5424,1.5425,1.5385,1.54,1.5402,1.5415,1.5423,1.5422,1.5407,1.5404,1.5427,1.543,1.5434,1.549,1.5438,1.544,1.5441,1.5559,1.5561,1.5563,0,0,0,0,0,0,1.5371,1.5377,1.5423,1.54,1.5405,1.5402,1.5417,1.5416,1.5424,1.5424,1.5423,1.5416,1.5426,1.543,1.5465,1.549,1.5441,1.5443,1.5557,1.556,1.5562,1.5603,0,0,0,0,0,0,1.5369,1.5377,1.5395,1.5401,1.5407,1.5454,1.5419,1.5417,1.5428,1.5425,1.5433,1.5432,1.5425,1.5462,1.5468,1.5493,1.5445,1.5555,1.5558,1.5561,1.56,1.5607,1.5613,0,0,0,0,0,1.5367,1.5405,1.5396,1.5402,1.5429,1.5456,1.5459,1.545,1.543,1.5449,1.5449,1.5432,1.5487,1.5466,1.5472,1.5498,1.5553,1.5557,1.5561,1.5597,1.5605,1.5613,0,0,0,0,0,0,1.5403,1.5406,1.5395,1.5437,1.5446,1.545,1.5473,1.546,1.5475,1.5471,1.5459,1.5462,1.5499,1.5502,1.5478,1.5545,1.5517,1.5522,1.5541,1.555,1.5557,1.5555,1.5447,0,0,0,0,0,1.5415,1.5437,1.5438,1.5475,1.548,1.5476,1.5487,1.5479,1.5489,1.5493,1.5495,1.5505,1.5524,1.5537,1.5555,1.56,1.5601,1.5621,1.5628,1.5633,1.5638,1.5662,1.5671,1.5576,1.5576,1.5576,0,0,1.5442,1.5446,1.5461,1.5482,1.5489,1.5511,1.548,1.5505,1.5521,1.5496,1.5529,1.5532,1.5542,1.5582,1.5599,1.5585,1.5665,1.5639,1.5643,1.5645,1.5667,1.5676,1.5684,1.5579,1.5579,1.5578,0,0,1.5502,1.5507,1.5538,1.5545,1.5555,1.5552,1.556,1.5566,1.5566,1.5599,1.5581,1.56,1.5634,1.5642,1.565,1.5713,1.5698,1.5719,1.5755,1.5778,1.5786,1.5792,1.5815,1.5823,1.5724,1.5724,1.5724,0,1.5534,1.5567,1.5556,1.5582,1.5592,1.5571,1.5602,1.561,1.5625,1.5632,1.5616,1.5658,1.5663,1.5705,1.572,1.5727,1.5736,1.5718,1.5786,1.5792,1.5798,1.5819,1.5828,1.5726,1.5726,1.5726,1.5726,0,1.5605,1.5628,1.5652,1.5667,1.568,1.5709,1.5703,1.5717,1.5708,1.5706,1.574,1.5746,1.5764,1.5773,1.5765,1.5814,1.5805,1.5787,1.5759,1.581,1.5829,1.5837,1.573,1.5729,1.5728,1.5728,0,0,1.5688,1.5697,1.5706,1.5713,1.5722,1.574,1.5768,1.5786,1.5798,1.5809,1.5832,1.5861,1.5845,1.5854,1.5847,1.5867,1.5917,1.5847,1.5847,1.586,1.5971,1.5984,1.5993,1.5907,1.5908,1.591,1.597,0,1.5748,1.5796,1.5787,1.5833,1.5855,1.5835,1.5859,1.5867,1.5866,1.5884,1.5884,1.5904,1.5881,1.5887,1.5906,1.5907,1.5939,1.5902,1.5928,1.5929,1.5926,1.6004,1.6018,1.6074,1.5978,1.5979,1.598,0,1.5824,1.5838,1.5887,1.5892,1.5901,1.5923,1.5939,1.5956,1.5965,1.5963,1.5974,1.5962,1.599,1.5961,1.5999,1.5974,1.5984,1.5986,1.5988,1.599,1.5958,1.6008,1.6092,1.6101,1.5992,1.5991,1.599,0,1.5879,1.5911,1.5944,1.595,1.5958,1.5974,1.5978,1.5985,1.5996,1.601,1.6017,1.6034,1.6044,1.6057,1.605,1.603,1.6089,1.606,1.6088,1.6089,1.6102,1.6101,1.6189,1.6108,1.6108,1.6108,1.6108,0,1.5947,1.5977,1.5969,1.5989,1.6023,1.6012,1.6046,1.6048,1.6055,1.6075,1.6058,1.6078,1.6068,1.6086,1.6081,1.6113,1.6118,1.6117,1.6115,1.6119,1.6119,1.6125,1.6121,1.611,1.611,1.6109,1.6109,0,1.6015,1.601,1.6045,1.605,1.6051,1.6076,1.608,1.6099,1.6097,1.6123,1.6128,1.6125,1.6147,1.6141,1.6164,1.6161,1.6201,1.6195,1.6198,1.6197,1.6226,1.6223,1.6321,1.6333,1.6245,1.6245,1.6246,0,1.6058,1.6081,1.6088,1.6101,1.6106,1.6126,1.6138,1.6128,1.6141,1.6153,1.6171,1.619,1.6206,1.624,1.624,1.6258,1.6251,1.6284,1.6254,1.6257,1.6252,1.6251,1.6253,1.6291,1.6292,1.6292,1.6293,0,1.6136,1.6132,1.6149,1.6166,1.618,1.6192,1.6203,1.6215,1.6206,1.6221,1.6243,1.6254,1.6278,1.6298,1.6314,1.6318,1.6304,1.6303,1.631,1.6314,1.6315,1.6315,1.6215,1.63,1.63,1.6299,1.6299,1.6298,1.6192,1.6212,1.622,1.624,1.6247,1.6258,1.6276,1.6276,1.6294,1.6312,1.6306,1.633,1.6339,1.6359,1.6365,1.6384,1.6371,1.6382,1.6385,1.6388,1.6392,1.6312,1.6387,1.6387,1.6386,1.6386,1.6386,0,1.6269,1.6273,1.6291,1.6307,1.6323,1.6308,1.632,1.6334,1.6356,1.6365,1.638,1.6405,1.6424,1.6425,1.6443,1.6458,1.6452,1.6463,1.6462,1.6463,1.6402,1.6393,1.6468,1.6467,1.6467,1.6467,1.6467,1.6467,1.631,1.6343,1.634,1.6376,1.638,1.6404,1.6412,1.6421,1.6429,1.6457,1.6473,1.6473,1.6479,1.6498,1.6515,1.6514,1.6522,1.6535,1.6533,1.6475,1.6467,1.646,1.6452,1.6537,1.6537,1.6592,1.6593,1.6593]},{"header":{"parameterUnit":"m.s-1","parameterCategory":1,"la1":30.2991,"la2":30.254,"lo1":-89.0895,"lo2":-89.0444,"dy":0.0017,"dx":0.0017,"nx":28,"ny":28,"refTime":"2026-01-02T03:00:00:Z","depth":0,"parameterNumber":3,"parameterNumberName":"V-component_of_WINDS"},"data":[0,0,0,0,0,0,0,0,0,0,0,0,0,0,0,0,0,0,0,0,0,0,0,0,0,0,0,0,0,0,0,0,0,0,0,0,0,0,0,0,0,0,0,0,0,0,0,0,0,0,0,0,0,0,0,0,0,0,6.3367,6.3369,0,6.3523,6.3525,6.3527,6.3521,6.3519,6.3517,6.3515,6.3672,6.3678,6.3685,0,0,0,0,0,0,0,0,0,0,0,0,0,6.3064,6.3069,6.3367,6.3369,6.3371,6.3523,6.3525,6.3527,6.3522,6.3519,6.3517,6.3514,6.367,6.3678,6.3685,0,0,0,0,0,0,0,0,0,0,0,0,0,6.3205,6.3071,6.3367,6.3387,6.339,6.3522,6.3525,6.3528,6.3522,6.3519,6.3516,6.3513,6.3668,6.3677,6.3686,6.3808,0,0,6.3715,6.3719,0,0,0,0,0,0,0,0,6.3197,6.3216,6.3382,6.3386,6.339,6.35,6.3476,6.3622,6.3523,6.3472,6.3515,6.3511,6.3617,6.3631,6.3667,6.3815,6.3822,6.3715,6.3721,6.3725,6.3728,0,0,0,0,0,0,0,6.3187,6.321,6.3429,6.3384,6.3389,6.3388,6.3404,6.3503,6.3561,6.3476,6.3476,6.3495,6.3619,6.3658,6.3671,6.3825,6.3715,6.3723,6.3729,6.3733,6.4083,6.4087,0,0,0,0,0,0,6.3174,6.3201,6.3424,6.3433,6.3284,6.3396,6.3414,6.3467,6.356,6.3571,6.3497,6.3494,6.3644,6.366,6.3676,6.3827,6.3725,6.3734,6.3739,6.408,6.4084,6.4088,0,0,0,0,0,0,6.3167,6.3193,6.3417,6.3318,6.3346,6.3404,6.3464,6.3472,6.3511,6.3576,6.3586,6.3527,6.3642,6.3663,6.3776,6.3832,6.3738,6.3746,6.4075,6.4081,6.4086,6.4129,0,0,0,0,0,0,6.3158,6.3191,6.3238,6.3319,6.3351,6.3516,6.3468,6.3478,6.3528,6.3525,6.3606,6.3617,6.3641,6.3762,6.3785,6.3844,6.3754,6.4071,6.4078,6.4085,6.4123,6.4135,6.4146,0,0,0,0,0,6.3148,6.3243,6.3241,6.3268,6.3412,6.3519,6.3537,6.3564,6.3532,6.358,6.3622,6.3614,6.3822,6.3774,6.38,6.3862,6.4067,6.4076,6.4084,6.4118,6.4133,6.4146,0,0,0,0,0,0,6.3167,6.3254,6.3252,6.3377,6.3441,6.3518,6.3579,6.3579,6.3652,6.3646,6.3675,6.3694,6.3808,6.3845,6.379,6.3986,6.3941,6.3955,6.3957,6.3972,6.3984,6.3973,6.3761,0,0,0,0,0,6.3185,6.3266,6.3337,6.344,6.3472,6.352,6.3568,6.3583,6.365,6.3676,6.3726,6.3791,6.3871,6.3923,6.4,6.4127,6.4146,6.4183,6.4194,6.4204,6.4216,6.4288,6.4306,6.4116,6.4116,6.4116,0,0,6.3225,6.3282,6.3331,6.3445,6.3497,6.3579,6.3543,6.3631,6.3693,6.3689,6.3801,6.3839,6.3913,6.4035,6.409,6.407,6.4273,6.4214,6.4221,6.4229,6.4299,6.4317,6.4333,6.4122,6.4121,6.412,0,0,6.334,6.339,6.3483,6.3536,6.3614,6.3646,6.3668,6.3746,6.3772,6.3883,6.3883,6.3956,6.4093,6.4147,6.4192,6.4329,6.4325,6.4353,6.4414,6.4484,6.45,6.4513,6.4564,6.4582,6.4365,6.4365,6.4365,0,6.3379,6.3504,6.353,6.3621,6.3671,6.3673,6.3768,6.3817,6.3916,6.3951,6.3926,6.41,6.4149,6.4285,6.4318,6.4354,6.4381,6.4345,6.4495,6.4509,6.4522,6.4571,6.459,6.4368,6.4367,6.4367,6.4367,0,6.3549,6.3636,6.3701,6.3799,6.3857,6.3948,6.3989,6.4044,6.4054,6.4088,6.4203,6.4263,6.4353,6.4386,6.4396,6.4523,6.4508,6.4489,6.4445,6.4543,6.459,6.4608,6.4372,6.4371,6.437,6.4369,0,0,6.3681,6.3794,6.3817,6.3863,6.395,6.4017,6.4109,6.4198,6.4246,6.4314,6.4393,6.451,6.4493,6.4544,6.456,6.4621,6.4729,6.4595,6.4597,6.462,6.4875,6.4891,6.4912,6.4726,6.473,6.4733,6.487,0,6.3807,6.3972,6.3999,6.4143,6.4224,6.4227,6.4308,6.437,6.4404,6.4478,6.4515,6.4598,6.4569,6.46,6.4661,6.4703,6.4781,6.4693,6.4801,6.4804,6.4785,6.4936,6.4953,6.508,6.4888,6.4891,6.4893,0,6.3976,6.4051,6.4204,6.4282,6.4317,6.4389,6.4474,6.4544,6.4615,6.4636,6.4694,6.4703,6.4799,6.4749,6.4882,6.4822,6.4867,6.4894,6.49,6.4913,6.4856,6.4956,6.5121,6.5141,6.4922,6.492,6.4918,0,6.4061,6.4199,6.4309,6.4347,6.444,6.4491,6.4532,6.46,6.4652,6.4726,6.4761,6.4845,6.4891,6.4955,6.4987,6.4947,6.5119,6.5071,6.514,6.5139,6.5178,6.5175,6.5355,6.5203,6.5202,6.5202,6.5202,0,6.42,6.4294,6.4349,6.4417,6.4522,6.4552,6.4656,6.4695,6.4755,6.4831,6.4837,6.4908,6.4945,6.5021,6.5046,6.5154,6.5174,6.5194,6.52,6.5195,6.5193,6.5227,6.522,6.5207,6.5206,6.5205,6.5204,0,6.4313,6.4353,6.4474,6.4552,6.4574,6.4649,6.4716,6.4782,6.4816,6.4912,6.4936,6.4989,6.508,6.5117,6.5227,6.5244,6.5369,6.5367,6.5346,6.5348,6.5416,6.541,6.5626,6.5657,6.5482,6.5483,6.5485,0,6.44,6.4473,6.456,6.4612,6.4655,6.4738,6.4792,6.4824,6.4881,6.4967,6.5024,6.5114,6.5189,6.5333,6.5381,6.5466,6.5468,6.5537,6.548,6.5474,6.5472,6.5468,6.5477,6.5548,6.555,6.5552,6.5553,0,6.4553,6.4569,6.4648,6.4734,6.4799,6.4868,6.4936,6.4977,6.502,6.5083,6.5176,6.5234,6.5347,6.5438,6.5526,6.5567,6.5568,6.557,6.5591,6.5588,6.5574,6.5585,6.5377,6.5565,6.5564,6.5563,6.5563,6.5562,6.4657,6.4723,6.4795,6.4883,6.4937,6.5001,6.5068,6.511,6.5189,6.5285,6.5298,6.5399,6.5468,6.5587,6.5632,6.5711,6.5693,6.5723,6.5731,6.5739,6.5745,6.5559,6.5727,6.5726,6.5726,6.5726,6.5726,0,6.4812,6.4859,6.4939,6.5034,6.5104,6.5098,6.5173,6.5231,6.532,6.5385,6.5459,6.5567,6.5655,6.571,6.5799,6.5852,6.5854,6.5874,6.5872,6.5882,6.5754,6.5728,6.5871,6.5871,6.5871,6.5871,6.5871,6.5871,6.4901,6.5013,6.5038,6.5177,6.5223,6.5322,6.5366,6.5424,6.5477,6.5598,6.5671,6.5707,6.5769,6.5863,6.5944,6.5958,6.5991,6.6013,6.6026,6.5906,6.5891,6.5876,6.5853,6.6019,6.6019,6.6148,6.6149,6.615]}]]